Weather History for MMHO - September, 2012

Change the Weather History Date:

Tuesday, September 4, 2012

  Actual Average Record
Temperature  
Mean Temperature 88 °F -  
Max Temperature 97 °F 96 °F 109 °F (2000)
Min Temperature 78 °F 74 °F 73 °F (2000)
Cooling Degree Days 22    
Growing Degree Days 38 (Base 50)    
Moisture  
Dew Point 74 °F    
Average Humidity 70    
Maximum Humidity 90    
Minimum Humidity 39    
Precipitation  
Precipitation 1.22 in - - ()
Sea Level Pressure  
Sea Level Pressure 29.98 in    
Wind  
Wind Speed 2 mph ()    
Max Wind Speed 16 mph    
Max Gust Speed 28 mph    
Visibility 8.5 miles    
Events Rain    
Averages and records for this station are not official NWS values.
T = Trace of Precipitation, MM = Missing Value Source: Averaged Metar Reports

Daily Weather History Graph

Daily Weather History Graph

Search for Another Location

Airport or City:

Trip Planner

Search our weather history database for the weather conditions in past years. The results will help you decide how hot, cold, wet, or windy it might be!

Date:

Astronomy

Sep. 04, 2012 Rise Set
Actual Time 7:03 AM MDT 7:41 PM MDT
Civil Twilight 6:39 AM MDT 8:05 PM MDT
Nautical Twilight 6:11 AM MDT 8:33 PM MDT
Astronomical Twilight 5:42 AM MDT 9:02 PM MDT
Moon 10:03 PM MDT 10:48 AM MDT
Length of Visible Light 13h 26m
Length of Day
12h 38m
Waning Gibbous, 83% of the Moon is Illuminated
Sep 4
Waning Gibbous
Sep 8
Last Quarter
Sep 15
New
Sep 22
First Quarter
Sep 29
Full

Hourly Weather History & Observations

Time (MDT) Temp. Heat Index Dew Point Humidity Pressure Visibility Wind Dir Wind Speed Gust Speed Precip Events Conditions
12:41 AM 86.0 °F 93.4 °F 73.4 °F 66% 30.03 in 10.0 mi Calm Calm - N/A   Mostly Cloudy
1:45 AM 84.2 °F 90.9 °F 73.4 °F 70% 30.02 in 10.0 mi Calm Calm - N/A   Mostly Cloudy
2:30 AM 85 °F - 71 °F 54% 29.98 in 5 mi SSE 2.2 mph - -   Mostly Cloudy
2:50 AM 84.2 °F 90.9 °F 73.4 °F 70% 29.97 in 10.0 mi Calm Calm - N/A   Mostly Cloudy
3:48 AM 82.4 °F 88.2 °F 73.4 °F 74% 30.02 in 10.0 mi Calm Calm - N/A   Mostly Cloudy
5:11 AM 82.4 °F 88.2 °F 73.4 °F 74% 30.00 in 10.0 mi Calm Calm - N/A   Mostly Cloudy
5:30 AM 83 °F - 73 °F 65% 29.97 in 5 mi NE 2.2 mph - -   Partly Cloudy
5:48 AM 82.4 °F 89.5 °F 75.2 °F 79% 29.94 in 10.0 mi Calm Calm - N/A   Mostly Cloudy
6:46 AM 82.4 °F 89.5 °F 75.2 °F 79% 30.01 in 10.0 mi Calm Calm - N/A   Mostly Cloudy
7:42 AM 84.2 °F 92.3 °F 75.2 °F 74% 30.02 in 10.0 mi Calm Calm - N/A   Mostly Cloudy
8:35 AM 80 °F - 75 °F 81% 29.99 in 7 mi NE 2.2 mph - -   Overcast
8:48 AM 86.0 °F 95.1 °F 75.2 °F 70% 29.95 in 10.0 mi NE 5.8 mph - N/A   Mostly Cloudy
9:40 AM 86.0 °F 95.1 °F 75.2 °F 70% 30.03 in 10.0 mi East 5.8 mph - N/A   Mostly Cloudy
10:52 AM 89.6 °F 98.2 °F 73.4 °F 59% 30.04 in 10.0 mi Calm Calm - N/A   Mostly Cloudy
11:47 AM 91.4 °F 98.4 °F 71.6 °F 52% 29.98 in 10.0 mi Calm Calm - N/A   Mostly Cloudy
11:55 AM 94 °F - 72 °F 39% 30.00 in 7 mi NNE 2.2 mph - -   Mostly Cloudy
12:48 PM 93.2 °F 100.5 °F 71.6 °F 49% 30.02 in 10.0 mi Calm Calm - N/A   Scattered Clouds
1:45 PM 95.0 °F 103.2 °F 71.6 °F 47% 29.99 in 10.0 mi WNW 5.8 mph - N/A   Scattered Clouds
2:32 PM 95 °F - 72 °F 39% 29.90 in 7 mi SE 2.2 mph - -   Mostly Cloudy
2:40 PM 96.8 °F 103.1 °F 69.8 °F 41% 29.88 in 10.0 mi SW 8.1 mph - N/A   Scattered Clouds
3:45 PM 91.4 °F 100.1 °F 73.4 °F 55% 29.95 in 8.0 mi WSW 15.0 mph 27.6 mph N/A   Overcast
4:10 PM 80.6 °F 86.2 °F 75.2 °F 84% 29.97 in 5.0 mi West 16.1 mph 27.6 mph N/A Rain Rain
4:44 PM 80.6 °F 87.1 °F 77.0 °F 89% 29.98 in 8.0 mi North 4.6 mph - N/A Rain Light Rain
5:34 PM 78 °F - 72 °F 78% 29.92 in 7 mi NE 2.2 mph - - Rain Light Drizzle
5:46 PM 80.6 °F 86.2 °F 75.2 °F 84% 29.94 in 6.0 mi Calm Calm - N/A Rain Light Rain
6:48 PM 80.6 °F 87.1 °F 77.0 °F 89% 29.96 in 7.0 mi Calm Calm - N/A   Overcast
7:49 PM 82.4 °F 90.9 °F 77.0 °F 84% 29.95 in 10.0 mi East 3.5 mph - N/A   Overcast
8:30 PM 79 °F - 77 °F 90% 29.93 in 5 mi NE 2.2 mph - -   Mostly Cloudy
8:47 PM 82.4 °F 89.5 °F 75.2 °F 79% 29.95 in 10.0 mi Calm Calm - N/A   Overcast
9:58 PM 82.4 °F 92.4 °F 78.8 °F 89% 30.00 in 10.0 mi Calm Calm - N/A   Overcast
10:44 PM 82.4 °F 90.9 °F 77.0 °F 84% 30.01 in 10.0 mi East 5.8 mph - N/A   Overcast
11:30 PM 78 °F - 70 °F 70% 29.96 in 5 mi NE 2.2 mph - -   Mostly Cloudy
11:48 PM 80.6 °F 86.2 °F 75.2 °F 84% 29.94 in 10.0 mi ENE 5.8 mph - N/A   Overcast